HORIZONS-3E

Last updated on Thu Nov 21 2024 00:02:44 GMT+0000 (Coordinated Universal Time)

1 43633U 18074B 24324.52545340 -.00000029 00000+0 00000+0 0 9992 2 43633 0.0252 190.3033 0001837 66.4901 160.4186 1.00271166 22569
UTC large
Height (km)
Speed (km/s)
/
Latitude / Longitude
Inclination (degrees)
Orbital Period (minutes)
Azimuth
Elevation
Range (km)
Doppler Factor

Next 0 passes for location: London (51.5072 / 0.1276)

Sorry there are no passes over London.